Volver al catálogo

FENGYUN 1C DEB

ActivoSSO
NORAD 31190·DEBRIS·🇨🇳 China

Lanzado May 10, 1999 desde Taiyuan Satellite Launch Center

Loading…

Próximos Pases (próximas 24 horas)

TLE

ActualizadoSource: Space-Track

Época: Sep 13, 2026, 18:53 UTC

1 31190U 99025BJU 26256.78745797  .00000417  00000-0  28448-3 0  9995
2 31190  98.8136 266.2880 0066823 209.3381 150.4028 14.04148911994065

Sigue FENGYUN 1C DEB en tiempo real con AllMySat

Download on the App Store